Lapse_Rate
6.8 6.7 6.9 6.9 7.3 7.3 7.1 6.8 6.8 6.5 6.3 6.4 6.1 5.7 5.8 5.9 6.0 6.1 6.2 6.1 6.1 6.3 6.4 6.1 6.5 6.5 6.2 6.2 6.2 6.2 6.1 5.8 5.7 5.4 5.5 5.9 5.8 5.6 5.5 5.3 5.5 5.8 6.1
7.1 7.0 7.0 7.1 7.0 7.1 7.0 6.8 6.6 6.3 6.4 6.2 6.1 6.0 6.2 6.0 5.5 5.5 6.2 6.4 6.5 6.4 6.6 6.4 6.5 6.4 6.4 6.3 6.2 6.0 5.9 5.7 5.9 5.7 5.7 5.4 5.2 5.4 5.1 4.9 4.9 5.3 5.8
7.6 7.2 7.1 7.1 7.0 7.1 7.1 7.0 6.8 6.6 6.6 6.5 6.3 6.3 6.3 5.8 5.9 6.1 6.3 6.3 6.4 6.5 6.5 6.5 6.6 6.4 6.2 6.3 6.5 6.5 6.4 6.1 6.0 5.9 5.7 5.5 5.4 5.2 5.0 4.9 4.8 5.0 5.7
7.7 7.4 7.4 7.3 7.3 7.2 7.2 7.3 7.2 7.2 7.0 6.9 6.9 6.8 6.9 6.7 6.6 6.5 6.4 6.4 6.5 6.5 6.5 6.6 6.6 6.8 6.7 6.5 6.5 6.4 6.3 5.8 5.7 5.9 5.4 5.2 5.3 5.1 5.0 4.9 5.0 5.0 5.5
8.0 7.9 7.9 7.7 7.5 7.2 7.3 7.4 7.3 7.3 7.2 7.1 7.0 6.9 7.0 6.7 6.6 6.4 6.4 6.2 6.7 6.8 6.8 6.7 6.6 6.8 6.9 6.8 6.7 6.1 6.2 5.9 5.7 5.7 5.4 5.8 5.8 5.6 5.4 5.3 5.1 5.1 5.3
7.9 7.8 7.8 7.8 7.7 7.4 7.2 7.2 7.2 7.2 7.0 6.8 6.9 7.1 7.1 7.1 7.1 6.9 7.1 7.0 6.7 6.6 6.4 6.7 6.8 6.6 6.5 6.5 6.4 5.9 5.9 5.9 5.8 6.0 5.8 5.9 5.9 5.7 5.4 5.2 5.4 5.5 5.6
8.0 8.0 8.0 7.9 7.7 7.8 7.5 7.2 7.3 7.4 7.3 7.1 7.0 7.0 7.0 6.9 7.1 6.8 7.1 7.3 7.0 6.6 6.2 6.4 6.7 6.9 6.8 6.7 6.6 6.0 5.9 5.9 5.9 5.9 5.7 5.2 5.5 5.4 5.4 5.4 5.5 5.6 5.4
8.1 7.8 8.0 8.1 7.9 7.7 7.8 7.7 7.6 7.7 7.6 7.5 7.6 7.1 7.1 7.2 7.1 6.8 6.8 6.6 6.2 6.4 6.4 6.5 6.7 6.8 6.8 6.6 6.3 6.3 6.2 5.8 5.4 5.4 5.5 5.4 5.4 5.3 5.6 5.8 5.4 5.1 5.3
7.8 7.7 7.5 7.5 7.9 8.0 7.7 7.9 7.9 8.0 7.7 7.6 7.5 7.6 7.4 7.0 7.2 7.3 6.7 6.2 6.2 6.3 6.2 6.3 6.9 6.9 7.0 6.6 6.4 6.3 6.1 5.8 5.5 5.7 5.5 5.3 5.1 5.1 5.4 5.5 5.5 5.6 5.7
8.1 8.0 7.6 7.8 7.5 7.6 7.6 8.0 8.3 8.4 8.3 7.6 7.4 7.6 7.7 7.5 7.3 7.0 6.3 6.3 6.5 6.5 6.5 6.5 6.7 6.8 7.1 6.7 6.5 6.3 6.1 6.0 5.8 5.4 5.4 5.4 5.6 5.6 5.5 5.8 5.6 5.3 5.3
8.3 8.0 8.0 7.7 7.5 7.3 7.0 7.4 7.8 7.6 7.6 7.6 7.5 7.3 7.3 7.2 7.3 6.7 6.2 5.8 6.4 6.7 6.9 6.8 7.1 7.2 6.9 6.8 6.6 6.4 6.2 6.0 5.9 6.1 5.8 5.5 5.8 5.6 5.6 5.4 5.3 5.3 5.1
8.5 8.5 8.3 8.0 7.8 7.7 7.5 7.2 7.3 7.4 7.2 7.9 7.5 7.2 6.9 6.9 5.7 6.4 6.0 5.5 6.9 7.1 7.1 7.1 7.2 7.0 7.0 6.8 6.6 6.4 6.1 6.2 5.8 5.8 5.4 5.5 5.6 5.6 5.5 5.2 5.2 4.9 4.8
8.4 8.2 8.4 8.3 8.2 8.1 7.9 7.7 7.5 7.5 7.7 7.4 6.8 6.6 7.0 7.2 7.5 7.1 7.1 7.2 7.2 7.1 7.1 7.4 7.3 7.2 7.0 6.8 6.7 6.4 6.2 6.0 5.7 5.5 5.7 5.7 5.3 5.3 5.4 5.1 4.9 4.8 4.6
8.6 8.4 8.2 8.3 8.3 8.2 8.3 8.1 7.7 7.5 7.8 7.5 7.4 7.6 7.7 7.7 7.6 7.5 7.6 7.5 7.3 7.2 7.3 7.2 7.2 7.2 7.1 6.8 6.4 6.3 5.5 5.6 5.5 5.3 5.3 5.0 4.9 5.4 5.1 4.8 4.7 4.7 4.7
8.6 8.3 8.0 7.9 8.1 8.3 8.1 8.2 8.1 7.9 7.6 7.7 7.8 7.9 7.8 7.8 7.6 7.6 7.6 7.6 7.5 7.5 7.4 7.4 7.4 7.0 6.7 6.3 6.0 5.4 5.0 5.0 5.4 5.3 5.0 4.9 5.3 4.9 4.8 4.9 5.0 4.8 4.8
8.0 8.2 8.1 8.0 7.7 8.1 8.1 8.1 8.1 8.0 7.9 7.8 7.9 8.1 8.2 7.9 7.9 8.0 7.9 7.8 7.7 7.5 7.4 7.2 6.8 6.6 6.2 5.9 5.6 5.5 5.3 5.2 4.9 5.3 5.1 5.1 4.8 4.9 4.9 4.8 4.8 4.8 4.8
8.6 8.5 8.5 8.4 8.1 7.9 7.9 8.0 8.1 8.1 8.0 8.0 8.0 7.8 7.7 7.8 7.9 7.7 7.6 7.5 7.5 7.4 7.1 6.8 6.6 6.4 6.1 5.9 5.8 5.8 5.4 5.5 5.3 5.3 5.2 5.0 5.0 4.9 5.1 5.0 4.9 5.0 5.0
8.2 8.4 8.5 8.3 8.0 8.0 7.8 7.9 7.9 8.0 8.0 7.9 7.8 7.7 7.7 7.7 7.9 7.7 7.7 7.6 7.4 7.1 6.9 6.8 6.5 6.3 6.1 6.0 5.9 5.7 5.6 5.5 5.3 5.0 4.9 5.0 4.8 4.8 4.8 4.8 4.8 4.8 4.9
8.3 8.4 8.0 7.8 7.6 7.7 7.6 7.7 7.8 7.9 7.9 7.8 7.8 7.7 7.6 7.6 7.7 7.6 7.3 7.2 6.9 6.8 6.7 6.5 6.4 6.1 6.0 5.9 5.7 5.5 5.4 5.2 5.1 5.0 4.9 4.7 4.6 4.4 4.3 4.6 4.8 4.8 5.0
8.5 8.2 7.9 7.7 7.5 7.4 7.4 7.5 7.6 7.7 7.7 7.5 7.5 7.6 7.7 7.7 7.4 7.4 7.1 6.9 6.7 6.7 6.5 6.2 6.0 5.9 5.8 5.6 5.5 5.4 5.3 5.2 4.9 4.7 4.4 4.4 4.3 4.3 4.4 4.4 4.6 4.9 5.3
8.3 8.1 7.7 7.4 7.2 7.3 7.2 7.3 7.4 7.4 7.3 7.3 7.4 7.5 7.4 7.4 7.2 7.0 6.8 6.7 6.7 6.6 6.3 5.9 5.8 5.6 5.5 5.5 5.3 5.0 4.8 4.6 4.6 4.4 4.4 4.4 4.4 4.7 4.8 4.9 5.0 5.1 5.2
8.2 7.6 7.4 7.2 7.2 7.0 6.9 6.9 6.9 7.0 7.1 7.2 7.2 7.2 7.1 7.0 6.8 6.7 6.6 6.5 6.5 6.2 5.9 5.9 5.8 5.6 5.4 5.2 5.0 4.8 4.5 4.4 4.5 4.5 4.5 4.5 4.7 4.8 4.9 5.0 5.0 5.0 5.1
7.8 7.4 7.2 7.1 7.0 6.8 6.6 6.6 6.8 6.9 6.9 7.1 7.1 7.0 6.9 6.8 6.6 6.5 6.5 6.4 6.0 5.7 5.7 5.7 5.4 5.3 5.0 4.8 4.6 4.5 4.4 4.4 4.3 4.4 4.5 4.7 4.7 4.7 4.8 4.8 4.8 5.0 5.4
7.7 7.3 7.2 7.1 6.9 6.7 6.6 6.6 6.7 6.8 6.9 6.9 7.0 6.9 6.7 6.6 6.4 6.2 6.1 5.9 5.9 5.8 5.5 5.3 5.1 4.9 4.7 4.4 4.4 4.4 4.4 4.4 4.4 4.6 4.6 4.7 4.7 4.9 4.9 4.8 5.0 5.5 5.8
7.6 7.4 7.1 7.0 6.8 6.8 6.7 6.7 6.7 6.8 6.9 7.0 6.9 6.7 6.5 6.4 6.2 6.0 5.8 5.7 5.5 5.3 5.0 4.7 4.5 4.3 4.2 4.3 4.2 4.3 4.4 4.2 4.4 4.5 4.7 4.8 5.0 4.9 4.9 5.1 5.4 5.9 6.0
7.3 7.2 7.2 7.0 6.8 6.7 6.7 6.7 6.7 6.8 6.9 6.9 6.8 6.6 6.3 6.1 5.9 5.8 5.6 5.2 4.6 4.4 4.2 4.0 3.9 3.6 3.9 4.0 4.2 4.4 4.4 4.4 4.5 4.7 4.8 4.9 4.9 4.9 5.1 5.4 5.9 6.1 6.0
Wind_Speed
17 15 16 16 14 13 14 16 15 14 11 10 10 9 9 9 4 9 15 19 18 17 15 9 11 13 6 6 6 4 4 2 2 3 2 2 4 5 6 11 12 11 20
18 18 16 16 15 17 16 17 16 17 12 11 10 7 5 3 4 8 13 18 17 10 15 10 7 8 4 5 6 5 2 2 3 3 2 2 3 2 4 4 5 9 14
19 19 19 18 18 18 18 19 18 16 15 14 9 6 3 4 4 4 5 11 18 18 14 14 13 9 6 5 5 6 7 4 1 3 4 1 3 1 2 5 4 5 6
20 19 21 19 20 19 17 18 18 16 15 17 14 14 12 9 8 5 5 7 17 16 17 17 16 13 9 6 5 5 4 5 3 1 0 2 3 3 1 2 3 5 6
22 22 23 23 21 20 19 18 18 18 18 17 17 13 14 9 9 6 11 12 9 17 19 16 13 8 8 6 8 5 6 5 3 3 2 1 2 1 1 2 3 2 4
22 23 23 23 22 20 19 19 21 21 20 19 20 18 15 11 9 7 9 8 8 8 14 14 13 10 9 8 7 7 9 6 7 4 3 3 3 2 3 3 5 4 4
22 22 23 21 22 23 24 20 22 22 22 21 21 21 15 14 14 11 8 10 5 3 7 8 8 7 11 12 12 6 7 8 8 7 4 2 3 3 3 7 4 4 2
18 23 25 24 23 25 25 24 23 22 22 22 22 20 17 11 11 8 5 4 7 7 5 7 10 11 12 10 12 5 5 6 6 7 4 3 3 4 5 3 3 3 2
12 17 23 23 24 24 26 25 25 23 21 18 16 18 18 15 10 12 9 10 10 6 7 7 7 7 9 9 8 6 7 7 5 5 4 3 5 4 3 1 2 4 3
15 13 15 23 22 24 24 24 24 25 25 22 16 14 17 15 12 10 6 5 6 12 12 7 6 6 5 8 8 7 7 7 4 3 4 5 3 2 2 2 3 3 4
11 10 9 8 17 22 22 22 19 10 11 8 14 14 14 18 15 10 7 6 5 10 10 8 7 8 8 8 8 7 8 7 6 4 5 4 2 2 4 4 3 4 3
8 7 8 5 5 9 18 14 20 24 22 18 13 11 3 10 4 3 11 13 11 9 10 8 8 9 9 10 9 9 8 7 6 6 5 4 3 4 4 5 6 5 5
8 8 6 2 1 3 5 14 19 21 14 15 18 8 11 14 10 9 9 9 8 8 9 10 11 11 10 10 9 9 8 7 6 7 5 2 1 5 5 5 5 5 6
9 8 8 7 4 3 7 8 9 10 12 13 9 12 10 12 12 11 10 8 7 6 4 7 9 10 10 9 8 7 6 7 7 6 4 2 1 6 6 6 6 5 4
6 8 8 7 7 7 7 9 6 8 13 12 11 11 12 11 11 10 9 9 8 7 7 9 8 8 8 6 7 7 8 8 6 5 3 2 4 8 9 7 9 9 8
11 8 9 9 9 8 8 8 7 9 12 13 12 11 11 11 9 10 10 8 8 8 7 7 7 7 5 10 11 9 8 7 5 4 1 3 6 8 12 15 15 12 9
9 9 12 11 9 11 11 9 8 10 11 11 11 12 12 12 10 9 10 9 9 7 7 6 6 6 5 12 12 11 5 5 4 2 3 5 5 6 7 10 11 9 11
9 10 9 7 8 10 11 10 11 10 10 10 11 11 12 12 10 10 9 8 6 7 6 6 7 7 6 13 11 10 6 4 1 3 3 4 6 3 8 7 8 9 9
8 8 8 10 9 10 9 12 10 10 10 10 10 10 11 12 11 10 9 7 7 6 5 6 7 7 6 8 9 7 4 2 5 5 4 4 4 8 15 9 10 12 12
12 13 12 11 11 7 10 11 9 10 9 9 9 10 11 11 10 8 8 4 5 6 7 7 7 8 7 10 10 9 4 5 3 4 5 9 8 11 14 10 9 12 12
13 10 11 10 8 9 10 9 8 8 8 10 10 12 12 12 10 7 6 7 6 7 6 6 7 10 11 12 18 15 6 3 2 2 3 3 10 15 17 16 7 10 13
14 12 11 10 8 9 11 9 8 7 10 13 12 11 10 8 7 8 5 7 7 7 6 9 8 7 9 13 15 14 11 7 3 2 2 3 15 16 15 11 14 17 10
12 10 11 10 8 10 11 11 8 11 11 11 10 9 9 8 7 5 5 6 7 5 5 7 7 6 5 5 12 12 10 9 3 2 8 14 15 15 8 10 15 9 6
10 10 12 11 9 10 11 12 11 11 11 10 7 6 7 8 8 7 6 6 5 4 5 6 6 5 4 3 3 4 2 3 3 4 5 7 9 6 2 5 7 5 6
7 11 10 9 8 11 11 11 11 12 10 9 8 7 8 10 9 7 5 6 4 4 5 3 4 4 3 4 5 5 3 1 3 3 1 2 2 5 6 6 6 6 7
11 11 10 12 10 11 9 8 9 11 11 10 6 5 5 6 7 7 7 12 11 13 13 11 8 5 8 6 7 8 8 10 10 1 1 2 2 4 6 6 7 6 8
Wind_Direction
164 160 163 168 162 165 162 171 172 174 178 182 181 186 205 216 206 199 208 192 201 196 195 187 182 170 159 179 179 155 175 142 131 96 23 298 250 189 183 192 187 179 177
154 159 162 163 172 173 176 177 183 191 186 190 196 202 203 200 199 210 201 204 203 192 194 183 181 179 157 178 183 155 139 165 167 142 106 275 339 310 222 191 209 190 192
165 167 166 172 177 180 182 184 189 187 190 188 192 207 218 214 201 206 206 205 201 211 203 185 174 189 173 180 181 168 162 172 194 159 150 188 200 328 318 229 212 194 186
172 173 171 178 181 186 185 190 193 193 192 191 196 205 212 210 211 188 195 200 206 201 200 193 187 184 186 169 178 171 141 117 157 12 302 167 156 174 300 305 221 224 211
177 178 182 180 187 185 190 195 195 195 197 201 204 209 210 210 198 186 192 200 199 201 183 200 183 179 185 174 159 130 115 112 136 177 158 37 33 74 202 256 265 262 233
183 184 186 184 184 187 192 196 198 200 201 202 208 213 208 204 202 194 192 196 195 190 191 185 186 175 144 142 143 143 173 153 165 156 163 158 134 171 217 252 251 225 257
182 185 186 188 191 187 192 196 201 204 202 205 209 214 210 195 197 197 180 178 165 197 188 189 169 164 163 163 162 149 145 167 161 149 159 158 189 169 218 242 245 229 275
191 186 188 190 193 196 193 194 201 205 204 206 212 214 208 206 206 180 161 169 179 206 197 176 168 163 162 146 144 144 161 161 154 151 157 171 208 218 220 195 178 306 280
202 199 190 190 197 196 199 196 195 202 207 204 209 212 210 209 190 170 161 185 184 164 169 182 158 137 134 145 146 154 164 156 148 148 184 201 230 218 239 261 182 187 238
215 203 186 193 199 201 201 200 200 201 206 206 203 203 204 203 180 173 181 149 144 156 167 171 144 141 151 151 156 163 160 153 152 154 192 215 180 247 305 278 255 220 202
161 181 193 198 209 204 203 202 198 152 214 234 224 217 202 196 187 167 150 115 150 168 154 166 164 154 164 163 168 166 160 154 153 178 178 169 58 340 327 298 268 254 211
156 148 152 175 169 186 213 193 187 186 196 209 226 211 129 92 3 98 128 162 171 168 157 168 167 170 167 166 166 167 166 168 171 165 147 142 33 306 286 270 269 255 245
160 154 138 151 316 103 119 182 178 196 200 213 227 153 165 179 178 145 155 154 152 158 171 161 165 164 162 159 166 172 157 163 154 147 138 131 329 330 284 268 270 269 267
167 164 160 167 176 84 89 92 147 176 165 187 134 137 133 123 123 124 124 145 141 140 158 153 152 155 156 159 165 157 147 137 145 158 162 189 9 274 284 291 277 277 260
212 176 168 167 145 113 94 94 91 95 124 121 114 117 117 116 123 130 130 125 120 119 116 117 126 139 144 153 159 151 154 159 156 159 182 52 262 287 283 292 291 283 274
186 163 151 141 142 125 111 102 90 91 107 113 116 119 120 119 119 120 118 118 117 119 116 119 135 141 151 150 150 147 150 149 163 172 58 297 279 279 287 283 278 258 262
166 147 151 150 142 135 127 117 104 97 95 101 102 105 110 112 110 111 119 119 114 117 123 129 129 131 125 135 124 114 117 124 123 117 270 265 286 309 345 352 352 344 332
142 137 131 121 124 125 121 114 111 109 107 103 105 109 112 111 104 101 102 103 109 120 121 119 121 115 124 125 128 120 117 116 183 249 301 354 358 27 352 343 333 326 318
138 129 123 123 118 120 118 118 113 112 114 118 120 120 116 115 114 115 118 116 118 119 125 134 133 132 153 142 125 116 125 75 54 43 28 18 342 355 7 353 329 317 309
135 132 125 121 121 118 116 117 121 121 123 119 113 114 116 117 116 121 124 117 118 116 110 98 108 99 90 83 94 87 87 76 28 10 10 2 354 347 341 327 316 309 305
131 120 122 128 127 118 113 111 110 112 119 119 113 109 112 117 117 111 108 108 107 104 103 102 92 97 96 82 84 81 79 83 34 9 339 319 335 328 322 322 305 293 305
133 128 127 128 121 115 115 108 110 106 100 106 109 111 113 119 116 123 125 122 123 117 119 106 94 91 98 94 85 80 75 63 56 342 306 311 324 324 325 326 329 342 333
137 129 130 123 117 116 124 119 120 114 111 111 115 120 122 128 138 133 119 105 113 117 121 117 126 124 94 74 69 58 51 41 32 340 332 323 321 319 323 341 348 342 335
136 131 130 129 124 124 123 128 130 124 120 123 121 119 113 100 87 86 84 94 91 93 95 104 114 120 101 91 63 48 32 16 358 335 315 300 295 294 325 346 346 339 337
117 127 127 122 114 121 122 129 127 125 121 111 113 103 97 95 85 69 78 90 56 99 112 97 108 110 99 71 46 17 358 305 309 289 309 298 323 359 352 347 342 339 335
121 115 108 103 102 100 100 103 112 115 111 105 90 85 99 102 100 98 81 72 91 93 96 101 106 91 107 76 19 357 349 342 335 355 330 321 351 358 345 340 336 335 333